CFG6EL LEPA-EDDS

Flight info

Callsign CFG6EL
Flight time N/A
Altitude 36000
Route MEROS N853 LUMAS DCT MAXIR DCT LUSOL DCT BODRU DCT OKTET DCT IRMAR DCT KINES DCT VANAS DCT MOBLO DCT LAMUR DCT KORED DCT BERSU N871 DITON T163 ZUE T125 REUTL REUTL1W
Aircraft A21N/M-SBDE3FGHIJ1J4J7LORVWXYZ/SB2D1G1

Departure

Time 2026-05-06 11:17
Airport Palma de Mallorca Airport (LEPA)

Arrival

Time N/A
Airport Stuttgart Airport (EDDS)
Time Latitude Longitude Altitude Speed Heading
2026-05-06 10:37 39.54713 2.73659 44 ft 0 kts 58°
2026-05-06 11:08 39.54712 2.73658 43 ft 1 kts 58°
2026-05-06 11:08 39.54710 2.73652 42 ft 3 kts 58°
2026-05-06 11:08 39.54705 2.73642 44 ft 3 kts 59°
2026-05-06 11:08 39.54697 2.73619 42 ft 3 kts 82°
2026-05-06 11:09 39.54698 2.73596 44 ft 3 kts 118°
2026-05-06 11:09 39.54710 2.73578 40 ft 3 kts 146°
2026-05-06 11:09 39.54726 2.73565 44 ft 4 kts 149°
2026-05-06 11:09 39.54736 2.73557 40 ft 1 kts 149°
2026-05-06 11:11 39.54735 2.73558 44 ft 3 kts 149°
2026-05-06 11:12 39.54713 2.73575 40 ft 4 kts 149°
2026-05-06 11:12 39.54675 2.73604 41 ft 9 kts 148°
2026-05-06 11:12 39.54668 2.73691 42 ft 13 kts 62°
2026-05-06 11:12 39.54723 2.73807 44 ft 17 kts 58°
2026-05-06 11:13 39.54788 2.73946 44 ft 19 kts 58°
2026-05-06 11:13 39.54888 2.73971 44 ft 13 kts 341°
2026-05-06 11:13 39.54975 2.74003 44 ft 14 kts 351°
2026-05-06 11:13 39.55064 2.73939 44 ft 15 kts 328°
2026-05-06 11:14 39.55160 2.73864 44 ft 17 kts 329°
2026-05-06 11:14 39.55262 2.73784 44 ft 18 kts 328°
2026-05-06 11:14 39.55370 2.73698 44 ft 19 kts 328°
2026-05-06 11:14 39.55483 2.73607 44 ft 20 kts 328°
2026-05-06 11:15 39.55603 2.73512 42 ft 20 kts 336°
2026-05-06 11:15 39.55678 2.73547 44 ft 13 kts 58°
2026-05-06 11:15 39.55736 2.73670 44 ft 20 kts 59°
2026-05-06 11:15 39.55832 2.73875 43 ft 28 kts 59°
2026-05-06 11:16 39.55934 2.74094 43 ft 29 kts 59°
2026-05-06 11:16 39.56069 2.74289 43 ft 30 kts 27°
2026-05-06 11:16 39.56171 2.74347 43 ft 12 kts
2026-05-06 11:16 39.56225 2.74277 43 ft 14 kts 264°
2026-05-06 11:17 39.56149 2.74100 42 ft 50 kts 238°
2026-05-06 11:17 39.55836 2.73441 42 ft 119 kts 238°
2026-05-06 11:17 39.55320 2.72348 129 ft 158 kts 238°
2026-05-06 11:17 39.54748 2.71144 761 ft 152 kts 237°
2026-05-06 11:18 39.54189 2.69984 1233 ft 157 kts 235°
2026-05-06 11:18 39.53577 2.68748 1635 ft 167 kts 236°
2026-05-06 11:18 39.52939 2.67450 2057 ft 179 kts 237°
2026-05-06 11:18 39.52253 2.66041 2533 ft 191 kts 237°
2026-05-06 11:19 39.51520 2.64543 3047 ft 204 kts 237°
2026-05-06 11:19 39.50736 2.62949 3589 ft 216 kts 237°
2026-05-06 11:19 39.49908 2.61270 4202 ft 225 kts 236°
2026-05-06 11:19 39.48744 2.59809 4587 ft 246 kts 212°
2026-05-06 11:20 39.47202 2.58674 5084 ft 262 kts 208°
2026-05-06 11:20 39.45575 2.57532 5828 ft 268 kts 208°
2026-05-06 11:20 39.43813 2.56742 6627 ft 271 kts 187°
2026-05-06 11:20 39.41926 2.56918 7403 ft 275 kts 165°
2026-05-06 11:21 39.40212 2.58052 8155 ft 282 kts 144°
2026-05-06 11:21 39.38711 2.59725 8904 ft 287 kts 140°
2026-05-06 11:21 39.37222 2.61467 9649 ft 291 kts 140°
2026-05-06 11:21 39.35736 2.63295 10236 ft 301 kts 138°
2026-05-06 11:22 39.34220 2.65213 10554 ft 318 kts 138°
2026-05-06 11:22 39.32582 2.67265 10822 ft 337 kts 138°
2026-05-06 11:22 39.30879 2.69524 11067 ft 358 kts 130°
2026-05-06 11:22 39.29704 2.72388 11424 ft 375 kts 109°
2026-05-06 11:23 39.29311 2.75747 11996 ft 384 kts 90°
2026-05-06 11:23 39.29770 2.79156 12620 ft 390 kts 71°
2026-05-06 11:23 39.30999 2.82300 13243 ft 395 kts 57°
2026-05-06 11:23 39.32466 2.85325 13874 ft 400 kts 58°
2026-05-06 11:24 39.33878 2.88437 14454 ft 404 kts 60°
2026-05-06 11:24 39.35235 2.91645 15044 ft 408 kts 62°
2026-05-06 11:24 39.36563 2.94910 15599 ft 412 kts 62°
2026-05-06 11:24 39.37896 2.98229 16175 ft 417 kts 62°
2026-05-06 11:25 39.39237 3.01572 16736 ft 421 kts 63°
2026-05-06 11:25 39.40594 3.04951 17290 ft 426 kts 63°
2026-05-06 11:25 39.41951 3.08325 17823 ft 431 kts 63°
2026-05-06 11:25 39.43322 3.11793 18355 ft 435 kts 63°
2026-05-06 11:26 39.44707 3.15293 18832 ft 439 kts 63°
2026-05-06 11:26 39.46262 3.18720 19296 ft 443 kts 52°
2026-05-06 11:26 39.48447 3.21525 19745 ft 444 kts 34°
2026-05-06 11:26 39.51115 3.23536 20200 ft 445 kts 22°
2026-05-06 11:27 39.53949 3.25169 20680 ft 447 kts 20°
2026-05-06 11:27 39.56814 3.26802 21155 ft 451 kts 21°
2026-05-06 11:27 39.59683 3.28508 21611 ft 455 kts 22°
2026-05-06 11:27 39.62557 3.30274 22065 ft 459 kts 23°
2026-05-06 11:28 39.65446 3.32080 22506 ft 462 kts 23°
2026-05-06 11:28 39.68355 3.33900 22940 ft 466 kts 23°
2026-05-06 11:28 39.71247 3.35708 23368 ft 469 kts 23°
2026-05-06 11:28 39.74199 3.37562 23746 ft 473 kts 23°
2026-05-06 11:29 39.77167 3.39426 24112 ft 476 kts 22°
2026-05-06 11:29 39.80168 3.41303 24471 ft 479 kts 22°
2026-05-06 11:29 39.83176 3.43188 24829 ft 482 kts 22°
2026-05-06 11:29 39.86207 3.45100 25187 ft 484 kts 22°
2026-05-06 11:30 39.89251 3.47023 25546 ft 487 kts 22°
2026-05-06 11:30 39.92308 3.48955 25905 ft 489 kts 22°
2026-05-06 11:30 39.95380 3.50890 26253 ft 492 kts 22°
2026-05-06 11:30 39.98481 3.52848 26619 ft 495 kts 22°
2026-05-06 11:31 40.01580 3.54811 26938 ft 498 kts 22°
2026-05-06 11:31 40.04708 3.56794 27257 ft 500 kts 22°
2026-05-06 11:31 40.07804 3.58753 27567 ft 503 kts 22°
2026-05-06 11:31 40.10964 3.60750 27893 ft 505 kts 22°
2026-05-06 11:32 40.14137 3.62768 28266 ft 506 kts 22°
2026-05-06 11:32 40.17306 3.64788 28671 ft 506 kts 22°
2026-05-06 11:32 40.20469 3.66802 29103 ft 505 kts 22°
2026-05-06 11:32 40.23638 3.68823 29424 ft 506 kts 22°
2026-05-06 11:33 40.26808 3.70846 29794 ft 506 kts 22°
2026-05-06 11:33 40.29971 3.72868 30152 ft 506 kts 22°
2026-05-06 11:33 40.32072 3.74211 30365 ft 506 kts 22°
2026-05-06 11:33 40.36263 3.76883 30779 ft 505 kts 22°
2026-05-06 11:34 40.38395 3.78245 30993 ft 505 kts 22°
2026-05-06 11:34 40.41546 3.80265 31331 ft 504 kts 22°
2026-05-06 11:34 40.44695 3.82295 31567 ft 505 kts 22°
2026-05-06 11:34 40.47857 3.84325 31831 ft 505 kts 22°
2026-05-06 11:35 40.51013 3.86348 32111 ft 504 kts 22°
2026-05-06 11:35 40.54166 3.88377 32384 ft 504 kts 22°
2026-05-06 11:35 40.57270 3.90383 32651 ft 503 kts 22°
2026-05-06 11:35 40.60414 3.92408 32918 ft 503 kts 22°
2026-05-06 11:36 40.63564 3.94438 33176 ft 502 kts 22°
2026-05-06 11:36 40.66704 3.96466 33418 ft 502 kts 22°
2026-05-06 11:36 40.69830 3.98493 33665 ft 501 kts 22°
2026-05-06 11:36 40.72971 4.00538 33898 ft 501 kts 22°
2026-05-06 11:37 40.76094 4.02558 34113 ft 500 kts 21°
2026-05-06 11:37 40.79216 4.04577 34296 ft 500 kts 21°
2026-05-06 11:37 40.82335 4.06597 34472 ft 500 kts 22°
2026-05-06 11:37 40.85458 4.08628 34664 ft 500 kts 22°
2026-05-06 11:38 40.88567 4.10657 34821 ft 499 kts 22°
2026-05-06 11:38 40.91688 4.12686 34986 ft 499 kts 22°
2026-05-06 11:38 40.94807 4.14720 35143 ft 499 kts 22°
2026-05-06 11:38 40.97918 4.16758 35291 ft 499 kts 22°
2026-05-06 11:39 41.01028 4.18794 35439 ft 499 kts 22°
2026-05-06 11:39 41.04101 4.20800 35560 ft 498 kts 22°
2026-05-06 11:39 41.07212 4.22839 35730 ft 499 kts 22°
2026-05-06 11:39 41.10324 4.24888 35854 ft 499 kts 22°
2026-05-06 11:40 41.13434 4.26932 35977 ft 498 kts 22°
2026-05-06 11:40 41.19670 4.31030 36006 ft 503 kts 22°
2026-05-06 11:41 41.25965 4.35205 35982 ft 507 kts 23°
2026-05-06 11:41 41.32298 4.39417 35982 ft 510 kts 23°
2026-05-06 11:42 41.38674 4.43635 35973 ft 512 kts 22°
2026-05-06 11:42 41.45055 4.47837 35973 ft 512 kts 22°
2026-05-06 11:43 41.51437 4.52093 35990 ft 513 kts 23°
2026-05-06 11:43 41.57823 4.56350 35978 ft 513 kts 23°
2026-05-06 11:44 41.67373 4.62752 35971 ft 514 kts 23°
2026-05-06 11:44 41.73789 4.67033 35983 ft 515 kts 23°
2026-05-06 11:45 41.80202 4.71326 35973 ft 515 kts 23°
2026-05-06 11:45 41.86632 4.75611 35969 ft 515 kts 23°
2026-05-06 11:46 41.93048 4.79907 35977 ft 515 kts 23°
2026-05-06 11:46 41.99422 4.84189 35969 ft 515 kts 23°
2026-05-06 11:47 42.05846 4.88521 35971 ft 515 kts 23°
2026-05-06 11:47 42.12265 4.92854 35991 ft 516 kts 23°
2026-05-06 11:48 42.18681 4.97209 35951 ft 517 kts 23°
2026-05-06 11:48 42.25126 5.01572 35962 ft 518 kts 24°
2026-05-06 11:49 42.31555 5.05985 35978 ft 518 kts 24°
2026-05-06 11:49 42.37947 5.10359 35961 ft 518 kts 24°
2026-05-06 11:50 42.44380 5.14764 35960 ft 517 kts 23°
2026-05-06 11:50 42.50811 5.19150 35984 ft 517 kts 24°
2026-05-06 11:51 42.57225 5.23556 35963 ft 517 kts 24°
2026-05-06 11:51 42.63642 5.27979 35956 ft 517 kts 24°
2026-05-06 11:52 42.70057 5.32420 35954 ft 517 kts 24°
2026-05-06 11:52 42.76472 5.36870 35943 ft 519 kts 24°
2026-05-06 11:53 42.82859 5.41321 35945 ft 519 kts 24°
2026-05-06 11:53 42.89298 5.45804 35970 ft 519 kts 24°
2026-05-06 11:54 42.95729 5.50247 35946 ft 517 kts 24°
2026-05-06 11:54 43.02153 5.54685 35939 ft 518 kts 24°
2026-05-06 11:55 43.08573 5.59173 35936 ft 518 kts 24°
2026-05-06 11:55 43.14984 5.63672 35937 ft 517 kts 24°
2026-05-06 11:56 43.21375 5.68175 35931 ft 517 kts 24°
2026-05-06 11:56 43.27742 5.72650 35905 ft 518 kts 24°
2026-05-06 11:57 43.34152 5.77192 35932 ft 517 kts 24°
2026-05-06 11:57 43.40558 5.81722 35917 ft 517 kts 25°
2026-05-06 11:58 43.46950 5.86266 35908 ft 517 kts 25°
2026-05-06 11:58 43.53345 5.90828 35912 ft 516 kts 25°
2026-05-06 11:59 43.59724 5.95371 35896 ft 516 kts 25°
2026-05-06 11:59 43.66105 5.99935 35896 ft 516 kts 25°
2026-05-06 12:00 43.72476 6.04507 35902 ft 515 kts 25°
2026-05-06 12:00 43.78824 6.08999 35866 ft 515 kts 24°
2026-05-06 12:01 43.85265 6.13378 35886 ft 516 kts 24°
2026-05-06 12:01 43.91725 6.17784 35904 ft 517 kts 24°
2026-05-06 12:02 43.98169 6.22201 35900 ft 517 kts 24°
2026-05-06 12:02 44.04626 6.26632 35890 ft 517 kts 24°
2026-05-06 12:03 44.11094 6.31071 35907 ft 517 kts 24°
2026-05-06 12:03 44.17546 6.35518 35908 ft 517 kts 24°
2026-05-06 12:04 44.23996 6.39960 35897 ft 517 kts 24°
2026-05-06 12:04 44.30401 6.44397 35886 ft 516 kts 24°
2026-05-06 12:05 44.36830 6.48853 35849 ft 516 kts 24°
2026-05-06 12:05 44.43286 6.53341 35920 ft 517 kts 24°
2026-05-06 12:06 44.49701 6.57813 35865 ft 515 kts 25°
2026-05-06 12:06 44.56130 6.62304 35884 ft 516 kts 25°
2026-05-06 12:07 44.62520 6.66759 35861 ft 515 kts 25°
2026-05-06 12:07 44.68947 6.71280 35836 ft 516 kts 25°
2026-05-06 12:08 44.75383 6.75790 35833 ft 515 kts 24°
2026-05-06 12:08 44.82164 6.78702 35866 ft 506 kts
2026-05-06 12:09 44.89091 6.78546 35844 ft 500 kts 352°
2026-05-06 12:09 44.96037 6.78020 35834 ft 500 kts 353°
2026-05-06 12:10 45.02995 6.77545 35839 ft 500 kts 353°
2026-05-06 12:10 45.09945 6.77087 35834 ft 499 kts 353°
2026-05-06 12:11 45.16847 6.76636 35851 ft 500 kts 353°
2026-05-06 12:11 45.23799 6.76173 35872 ft 501 kts 353°
2026-05-06 12:12 45.30776 6.75713 35855 ft 501 kts 353°
2026-05-06 12:12 45.37753 6.75249 35872 ft 501 kts 353°
2026-05-06 12:13 45.44716 6.74788 35875 ft 501 kts 353°
2026-05-06 12:13 45.51702 6.74318 35889 ft 501 kts 353°
2026-05-06 12:14 45.58631 6.73842 35905 ft 501 kts 353°
2026-05-06 12:14 45.65599 6.73368 35893 ft 500 kts 353°
2026-05-06 12:15 45.72561 6.72865 35912 ft 500 kts 353°
2026-05-06 12:15 45.79528 6.72643 35916 ft 503 kts
2026-05-06 12:16 45.82964 6.73659 35905 ft 507 kts 16°
2026-05-06 12:16 45.86235 6.75579 35911 ft 509 kts 24°
2026-05-06 12:16 45.89217 6.78226 35899 ft 511 kts 37°
2026-05-06 12:16 45.91999 6.81399 35892 ft 511 kts 39°
2026-05-06 12:17 45.97514 6.87844 35882 ft 510 kts 39°
2026-05-06 12:17 46.03045 6.94245 35884 ft 510 kts 39°
2026-05-06 12:18 46.08570 7.00641 35891 ft 509 kts 39°
2026-05-06 12:18 46.14054 7.07005 35907 ft 509 kts 39°
2026-05-06 12:19 46.19569 7.13424 35902 ft 509 kts 39°
2026-05-06 12:19 46.25073 7.19841 35905 ft 508 kts 39°
2026-05-06 12:20 46.30590 7.26282 35899 ft 511 kts 39°
2026-05-06 12:20 46.35187 7.31674 35913 ft 511 kts 39°
2026-05-06 12:21 46.40703 7.38159 35862 ft 510 kts 39°
2026-05-06 12:21 46.46222 7.44658 35858 ft 511 kts 39°
2026-05-06 12:22 46.51695 7.51128 35867 ft 510 kts 39°
2026-05-06 12:22 46.57237 7.57688 35860 ft 510 kts 40°
2026-05-06 12:23 46.62700 7.64177 35867 ft 511 kts 40°
2026-05-06 12:23 46.68200 7.70727 35863 ft 510 kts 40°
2026-05-06 12:24 46.73697 7.77285 35868 ft 510 kts 40°
2026-05-06 12:24 46.79179 7.83853 35869 ft 510 kts 40°
2026-05-06 12:25 46.84664 7.90430 35869 ft 510 kts 40°
2026-05-06 12:25 46.90142 7.97023 35872 ft 510 kts 40°
2026-05-06 12:26 46.95618 8.03629 35851 ft 510 kts 40°
2026-05-06 12:26 47.01095 8.10266 35871 ft 510 kts 40°
2026-05-06 12:27 47.06533 8.16871 35845 ft 511 kts 40°
2026-05-06 12:27 47.11993 8.23532 35847 ft 511 kts 40°
2026-05-06 12:28 47.17450 8.30249 35823 ft 513 kts 40°
2026-05-06 12:28 47.22939 8.36959 35832 ft 513 kts 40°
2026-05-06 12:29 47.28421 8.43678 35841 ft 513 kts 40°
2026-05-06 12:29 47.33936 8.50436 35812 ft 511 kts 40°
2026-05-06 12:30 47.39390 8.57152 35818 ft 511 kts 40°
2026-05-06 12:30 47.44841 8.63905 35821 ft 511 kts 40°
2026-05-06 12:31 47.50279 8.70652 35825 ft 509 kts 40°
2026-05-06 12:31 47.55701 8.77399 35816 ft 509 kts 40°
2026-05-06 12:32 47.60567 8.84949 35813 ft 506 kts 58°
2026-05-06 12:32 47.64259 8.93762 35822 ft 506 kts 61°
2026-05-06 12:33 47.67926 9.02663 35824 ft 505 kts 60°
2026-05-06 12:33 47.71603 9.11529 35711 ft 500 kts 60°
2026-05-06 12:34 47.73426 9.15904 35330 ft 495 kts 60°